Torna al catalogo

DMSP 5D-2 F14 DEB

AttivoSSO
NORAD 63155·DEBRIS·🇺🇸 United States

Lanciato Apr 4, 1997 da Vandenberg Space Force Base

Loading…

Prossimi Passaggi (prossime 24 ore)

TLE

AggiornatoSource: Space-Track

Epoca: Sep 14, 2026, 21:51 UTC

1 63155U 97012V   26257.91091994  .00002072  00000-0  87626-3 0  9996
2 63155  98.8405 317.6325 0034456 144.7197 215.6272 14.26316632 81703

Traccia DMSP 5D-2 F14 DEB in tempo reale con AllMySat

Download on the App Store